Thursday, September 20, 2018, 5:06 PM EDT
Back to Local

KNYC, New York City Central Park

Location: New York, NY, United States Lat: 40.783
Local Time: 5:06 PM EDT (21:06 GMT) Lon: -73.967
Time Zone: US/Eastern Elev: 157 ft

Show me the last for .
Show Decoded

2018-09-20 16:51 METAR KNYC 202051Z AUTO 00000KT 10SM BKN036 20/16 A3023 RMK AO2 SLP228 T02000161
                 56010 $ =
2018-09-20 15:51 METAR KNYC 201951Z AUTO 05004KT 10SM SCT055 21/16 A3024 RMK AO2 SLP229 T02110156
                 $ =
2018-09-20 14:51 METAR KNYC 201851Z AUTO VRB03KT 10SM SCT041 OVC055 22/15 A3024 RMK AO2 SLP232
                 T02170150 $ =
2018-09-20 13:51 METAR KNYC 201751Z AUTO VRB03KT 10SM BKN037 BKN046 OVC055 21/15 A3026 RMK AO2
                 SLP238 T02110150 10211 20183 58001 $ =
2018-09-20 12:51 METAR KNYC 201651Z AUTO 05004KT 10SM OVC036 20/15 A3027 RMK AO2 SLP241 T02000150
                 $ =
2018-09-20 11:51 METAR KNYC 201551Z AUTO 05003KT 10SM OVC034 20/14 A3028 RMK AO2 SLP244 T02000139
                 $ =
2018-09-20 10:51 METAR KNYC 201451Z AUTO 06005KT 10SM OVC031 20/14 A3027 RMK AO2 SLP240 T02000139
                 53015 $ =
2018-09-20 10:35 METAR KNYC 201435Z AUTO 00000KT 10SM SCT022 OVC031 19/15 A3026 RMK AO2 T01940150
                 $ =
2018-09-20 09:51 METAR KNYC 201351Z AUTO 00000KT 10SM OVC021 19/14 A3025 RMK AO2 SLP236 T01890139
                 $ =
2018-09-20 08:51 METAR KNYC 201251Z AUTO 00000KT 10SM OVC027 19/14 A3023 RMK AO2 SLP227 T01890144
                 $ =
2018-09-20 07:51 METAR KNYC 201151Z AUTO 07003KT 10SM BKN020 OVC027 18/14 A3022 RMK AO2 SLP225
                 T01830144 10200 20183 53027 $ =
2018-09-20 06:51 METAR KNYC 201051Z AUTO 06004KT 10SM BKN020 OVC026 19/15 A3018 RMK AO2 SLP211
                 T01890150 $ =
2018-09-20 05:51 METAR KNYC 200951Z AUTO 00000KT 10SM OVC021 18/14 A3016 RMK AO2 SLP203 T01830144
                 $ =
2018-09-20 04:51 METAR KNYC 200851Z AUTO VRB04KT 10SM OVC020 19/14 A3014 RMK AO2 SLP197 T01890144
                 53009 $ =
2018-09-20 03:51 METAR KNYC 200751Z AUTO 00000KT 10SM OVC019 19/14 A3013 RMK AO2 SLP193 T01890144
                 $ =
2018-09-20 02:51 METAR KNYC 200651Z AUTO 06003KT 10SM OVC018 19/15 A3012 RMK AO2 SLP191 T01940150
                 $ =
2018-09-20 01:51 METAR KNYC 200551Z AUTO 05005KT 10SM OVC016 20/16 A3011 RMK AO2 SLP187 60000
                 T02000161 10222 20200 53012 $ =
2018-09-20 00:51 METAR KNYC 200451Z AUTO VRB05KT 10SM OVC015 20/18 A3010 RMK AO2 RAB00E38 SLP182
                 P0000 T02000178 402720200 $ =
2018-09-20 00:37 METAR KNYC 200437Z AUTO 00000KT 10SM -RA OVC016 20/18 A3009 RMK AO2 RAB00 P0000
                 T02000183 $ =
2018-09-20 00:15 METAR KNYC 200415Z AUTO 05005KT 9SM -RA BKN014 OVC029 21/18 A3009 RMK AO2 RAB00
                 P0000 T02110183 $ =
2018-09-19 23:51 METAR KNYC 200351Z AUTO VRB03KT 10SM SCT015 BKN029 OVC043 22/18 A3009 RMK AO2
                 SLP178 T02170183 $ =
2018-09-19 23:38 METAR KNYC 200338Z AUTO VRB03KT 10SM SCT015 BKN021 OVC043 22/18 A3009 RMK AO2
                 T02170183 $ =
2018-09-19 22:58 METAR KNYC 200258Z AUTO 00000KT 10SM SCT015 OVC041 22/19 A3008 RMK AO2 T02170189
                 $ =
2018-09-19 22:51 METAR KNYC 200251Z AUTO 00000KT 10SM BKN015 BKN035 OVC044 22/18 A3008 RMK AO2
                 RAB07E16 SLP175 P0000 60000 T02170183 51015 $ =
2018-09-19 21:51 METAR KNYC 200151Z AUTO 00000KT 10SM BKN015 BKN035 OVC045 22/19 A3006 RMK AO2
                 SLP169 T02170189 $ =
2018-09-19 21:46 METAR KNYC 200146Z AUTO 00000KT 10SM SCT015 BKN036 OVC045 22/19 A3005 RMK AO2 $
                 =
2018-09-19 20:51 METAR KNYC 200051Z AUTO 00000KT 10SM BKN015 BKN021 OVC028 22/19 A3003 RMK AO2
                 SLP161 T02220194 $ =
2018-09-19 20:41 METAR KNYC 200041Z AUTO 10SM BKN015 OVC019 22/19 A3003 RMK AO2 T02220194 $ =
2018-09-19 19:59 METAR KNYC 192359Z AUTO 00000KT 10SM BKN013 22/20 A3001 =
2018-09-19 19:51 METAR KNYC 192351Z AUTO VRB03KT 10SM BKN015 BKN050 22/20 A3000 RMK AO2 SLP151
                 T02220200 10267 20222 52019 $ =
2018-09-19 18:51 METAR KNYC 192251Z AUTO 00000KT 10SM SCT035 OVC055 24/19 A2998 RMK AO2 SLP144
                 T02390189 $ =
2018-09-19 17:51 METAR KNYC 192151Z AUTO VRB03KT 10SM CLR 26/16 A2997 RMK AO2 SLP138 T02560161 $
                 =

Support USWX by starting your Amazon purchase here.